This demonstration page uses our WeatherBlox Daily Observations layout. Learn more.

38.89511, -77.03637

Hourly Observations for April 22, 2015

Temp ( °F °C ) Dew Point ( °F °C ) Humidity (%) Winds ( mph kmh ) Pressure ( in mb ) Visibility ( mi km ) Precip ( " mm )
12:52 am 00:52 Clear 55 13 37 3 51 51 S 6 9 29.83 1010 10 16.09344 0 0
1:52 am 01:52 Mostly Clear 54 12 41 5 63 63 SW 3 6 29.8 1009 10 16.09344 0 0
2:52 am 02:52 Mostly Clear 54 12 37 3 54 54 SW 5 7 29.8 1009 10 16.09344 0 0
3:52 am 03:52 Mostly Clear 54 12 36 2 51 51 Calm 29.8 1009 10 16.09344 0 0
4:52 am 04:52 Mostly Cloudy 52 11 37 3 58 58 S 6 9 29.8 1009 10 16.09344 0 0
5:52 am 05:52 Mostly Cloudy 54 12 36 2 51 51 SSW 5 7 29.8 1009 10 16.09344 0 0
6:52 am 06:52 Partly Cloudy 54 12 39 4 58 58 S 7 11 29.8 1009 10 16.09344 0 0
7:52 am 07:52 Partly Cloudy 57 14 41 5 55 55 S 10 17 29.8 1009 10 16.09344 0 0
8:52 am 08:52 Mostly Cloudy 61 16 43 6 52 52 S 8 13 29.77 1008 10 16.09344 0 0
9:52 am 09:52 Partly Cloudy 63 17 43 6 49 49 S 15 24 29.74 1007 10 16.09344 0 0
10:52 am 10:52 Mostly Sunny 66 19 41 5 40 40 S 17 28 29.71 1006 10 16.09344 0 0
11:52 am 11:52 Partly Cloudy 72 22 39 4 31 31 SSW 24 39 29.65 1004 10 16.09344 0 0
12:52 pm 12:52 Mostly Cloudy 73 23 39 4 29 29 SSW 23 37 29.62 1003 10 16.09344 0 0
1:17 pm 13:17 Mostly Cloudy 73 23 41 5 31 31 SSW 25 41 29.62 1003 10 16.09344 0 0
1:34 pm 13:34 Cloudy 72 22 37 3 29 29 SSW 16 26 29.62 1003 10 16.09344 0 0
1:52 pm 13:52 Cloudy 72 22 37 3 29 29 WSW 15 24 29.62 1003 10 16.09344 0 0
1:58 pm 13:58 Mostly Cloudy 70 21 39 4 33 33 NW 25 41 29.62 1003 10 16.09344 0 0
2:03 pm 14:03 Mostly Cloudy with Light Rain 66 19 45 7 46 46 NNW 22 35 29.62 1003 10 16.09344 0 0
2:19 pm 14:19 Mostly Cloudy 64 18 48 9 56 56 NW 17 28 29.62 1003 10 16.09344 0.001 0.001
2:52 pm 14:52 Mostly Cloudy 64 18 46 8 52 52 NW 14 22 29.65 1004 10 16.09344 0.001 0.001
3:52 pm 15:52 Mostly Cloudy 63 17 46 8 56 56 NNW 20 31 29.68 1005 10 16.09344 0.001 0.001
4:52 pm 16:52 Mostly Cloudy 61 16 45 7 55 55 NW 18 30 29.68 1005 10 16.09344 0 0
5:52 pm 17:52 Mostly Cloudy 61 16 41 5 48 48 NNW 14 22 29.71 1006 10 16.09344 0 0
6:52 pm 18:52 Partly Cloudy 57 14 41 5 55 55 N 8 13 29.71 1006 10 16.09344 0 0
7:52 pm 19:52 Mostly Clear 59 15 37 3 45 45 NW 14 22 29.74 1007 10 16.09344 0 0
8:52 pm 20:52 Mostly Clear 57 14 36 2 44 44 NNW 9 15 29.74 1007 10 16.09344 0 0
9:52 pm 21:52 Partly Cloudy 57 14 34 1 41 41 NNW 10 17 29.74 1007 10 16.09344 0 0
10:52 pm 22:52 Mostly Clear 55 13 34 1 44 44 NNW 17 28 29.77 1008 10 16.09344 0 0
11:52 pm 23:52 Mostly Cloudy 54 12 36 2 51 51 NW 12 19 29.8 1009 10 16.09344 0 0

Powered by AerisWeather